FENGYUN 1C DEB, 30022

Orbit data source: Space-Track

FENGYUN 1C DEB, 30022 is space debris in SSO originally from a launch on Mon, 10 May 1999 UTC launched from the Taiyaun Space Center, China (TSC). Fengyun 1C debris stems from the Chinese weather satellite Fengyun-1C, which was intentionally destroyed by a Chinese anti-satellite missile in 2007. This event dramatically increased the amount of space debris, with thousands of trackable fragments posing hazards to satellites and human spaceflight. The Fengyun 1C debris cloud has become a focal point in discussions about space sustainability and the need for international regulations to prevent the creation of new debris.

Loading next visibility...
Identifier
30022, 1999-025MX
Orbit
SSO
Country
Flag of CNCN / PRC
Related business
Manufacturer
Unknown
Mission
Spacecraft
Bus & Motor
Unknown
Mass
Unknown
Launch date (UTC)
1999-05-10 (27 years ago)
Launch vehicle
Unknown
Launch site
Taiyaun Space Center, China (TSC)
Object type
Payload
Rocket body
Debris
Shape & HBR
Unknown shape, 0.2 m
Radar Cross Section
Medium (>0.1 m² and <1 m²)

Expand to show TLE details & history
Last TLE update: 14 hours ago

TLE from 14 hours ago
0 FENGYUN 1C DEB
1 30022U 99025MX  26255.14840818  .00000038  00000-0  36592-4 0  9996
2 30022  99.0406 116.1706 0066961 204.7692 274.3502 14.23207018 20796
Epoch: 2026-09-12T03:33Z
TLE epoch observation values (Epoch: 2026-09-12T03:33:42.466Z)
Latitude
60.45063°
Longitude
-92.20686°
Altitude
821.451 km
Speed
7.45 km/s
True Right ascension
20h 49m 31s
True Declination
60° 18' 15"
Sunlit
Object was in daylight at epoch
Visualization orbit readout
Latitude
Unknown
Longitude
Unknown
Altitude
Unknown
Speed
Unknown
Apparent Right ascension
Unknown
Apparent Declination
Unknown
Sunlit
N/A
Visualization observer readout
Local Sidereal Time
09:45:08
Azimuth
Unknown
Elevation
Unknown
Doppler factor
Unknown
Orbital elements
Apogee altitude
859.841 km
Perigee altitude
763.554 km
Semi-major axis
7,189.835 km
Eccentricity
0.0067
Inclination
99.0406°
RAAN
116.1706°
Arg. of periapsis
204.7692°
True anomaly
273.58463°
Mean anomaly
274.3502°
Eccentric anomaly
273.96746°
Mean motion
3.56012 °/min
Orbital period
101.12 mins
BSTAR
0.000036592
Loading maneuver chart data...
Computing Atmospheric mass density...
Loading historical data...
Loading historical data...
Loading historical data...
Loading historical data...
Loading historical data...
Loading historical data...
Loading historical data...

Documentation

Showing up to 5 results
|